Location: Unspecified
(43.4354°N, 0.0000°E)
Time: 20:14:27
(UTC+00:00)

S-56A Canister/Altair - Pass Details

Date: 29 June 2019
Orbit: 632 x 2500 km, 38.9° (Epoch: 21 July)

Event Time Altitude Azimuth Distance (km) Brightness Sun altitude
Rises 11:38:31 0° 208° (SSW) 6,144 12.3 69.1°
Reaches altitude 10° 11:43:23 10° 200° (SSW) 5,041 12.1 69.4°
Maximum altitude 11:54:45 30° 146° (SSE) 3,209 11.6 69.7°
Drops below altitude 10° 12:03:42 10° 91° (E) 3,956 11.3 69.8°
Sets 12:06:58 0° 81° (E) 4,680 11.5 69.8°
